Location: Lane
(33.5226°N, 79.8788°W)
Time: 10:00:04
(UTC+00:00)

Altair - Pass Details

Date: 12 October 2022
Orbit: 1501 x 1682 km, 47.2° (Epoch: 30 November)

Event Time Altitude Azimuth Distance (km) Brightness Sun altitude
Rises 17:06:15 0° 285° (WNW) 4,924 10.1 48.9°
Reaches altitude 10° 17:12:46 10° 255° (WSW) 3,940 9.9 48.9°
Maximum altitude 17:15:28 11° 239° (WSW) 3,831 10.1 48.8°
Drops below altitude 10° 17:18:10 10° 223° (SW) 3,931 10.3 48.8°
Sets 17:24:43 0° 193° (SSW) 4,893 10.8 48.7°
